K2CAT Weather Reports


Display with metric or nautical units.
time (UTC)temp
F
wind
direction
speed
MPH
gust
MPH
rain 1hr
in
rain 24hr
in
rain mn
in
humidity
%
barometer
mb
20260504174028 71 131 3.0 3.0 0.00 0.00 0.00 35 1008.8
20260504173525 72 337 2.0 2.0 0.00 0.00 0.00 36 1008.6
20260504173022 72 79 4.0 4.0 0.00 0.00 0.00 36 1008.6
20260504172518 71 5 1.0 2.0 0.00 0.00 0.00 35 1009.0
20260504172015 71 117 3.0 7.0 0.00 0.00 0.00 38 1008.9
20260504171512 71 189 6.0 10.0 0.00 0.00 0.00 34 1008.9
20260504171009 72 32 2.0 2.0 0.00 0.00 0.00 33 1009.1
20260504170504 71 322 2.0 2.0 0.00 0.00 0.00 33 1009.0
20260504160425 68 163 4.0 6.0 0.00 0.00 0.00 35 1009.7
20260504150848 66 222 1.0 2.0 0.00 0.00 0.00 40 1010.4
20260504150345 66 345 2.0 6.0 0.00 0.00 0.00 38 1010.7
20260504141315 62 212 2.0 3.0 0.00 0.00 0.00 46 1011.0
20260504140812 61 119 1.0 1.0 0.00 0.00 0.00 45 1011.3
20260504140308 60 325 0.0 0.0 0.00 0.00 0.00 45 1011.3
20260504130737 55 124 1.0 2.0 0.00 0.00 0.00 52 1011.8
20260504130232 54 93 1.0 1.0 0.00 0.00 0.00 53 1011.8
20260504120156 47 197 1.0 1.0 0.00 0.00 0.00 71 1012.6
20260504110623 41 306 0.0 0.0 0.00 0.00 0.00 89 1012.4
20260504110119 40 306 0.0 0.0 0.00 0.00 0.00 90 1012.4
20260504100545 37 305 0.0 0.0 0.00 0.00 0.00 92 1012.5
20260504081939 39 264 0.0 0.0 0.00 0.00 0.00 89 1012.3
20260504081436 39 249 0.0 0.0 0.00 0.00 0.00 88 1012.4
20260504080932 39 249 0.0 0.0 0.00 0.00 0.00 87 1012.3
20260504080428 39 249 0.0 1.0 0.00 0.00 0.00 88 1012.4
20260504070356 39 183 0.0 0.0 0.00 0.00 0.00 87 1012.1
20260504050743 41 250 0.0 0.0 0.00 0.00 0.00 82 1011.6
20260504050241 42 264 0.0 1.0 0.00 0.00 0.00 81 1011.9
20260504045739 42 268 0.0 1.0 0.00 0.00 0.00 81 1011.8
20260504045239 42 268 0.0 0.0 0.00 0.00 0.00 81 1011.7
20260504044737 42 267 0.0 1.0 0.00 0.00 0.00 82 1011.7
20260504044234 42 277 1.0 1.0 0.00 0.00 0.00 83 1011.8
20260504043731 42 317 0.0 0.0 0.00 0.00 0.00 82 1011.8
20260504043228 42 318 0.0 0.0 0.00 0.00 0.00 81 1011.9
20260504042726 42 317 0.0 0.0 0.00 0.00 0.00 82 1011.7
20260504042222 42 317 0.0 0.0 0.00 0.00 0.00 83 1012.0
20260504041718 42 317 0.0 0.0 0.00 0.00 0.00 83 1011.9
20260504041214 42 318 0.0 0.0 0.00 0.00 0.00 83 1012.0
20260504040710 42 318 0.0 0.0 0.00 0.00 0.00 82 1011.8
20260504040208 42 318 0.0 0.0 0.00 0.00 0.00 82 1011.9
20260504035704 42 318 0.0 0.0 0.00 0.00 0.00 82 1011.6
20260504035202 42 318 0.0 0.0 0.00 0.00 0.00 82 1011.8
20260504034659 42 318 0.0 0.0 0.00 0.00 0.00 81 1011.8
20260504034155 42 318 0.0 0.0 0.00 0.00 0.00 81 1011.6
20260504033653 42 318 0.0 0.0 0.00 0.00 0.00 81 1011.6
20260504033150 42 318 0.0 0.0 0.00 0.00 0.00 81 1011.7
20260504032647 43 296 0.0 0.0 0.00 0.00 0.00 79 1011.8
20260504032144 43 296 0.0 0.0 0.00 0.00 0.00 77 1011.7
20260504031641 43 297 0.0 0.0 0.00 0.00 0.00 77 1011.8
20260504031138 43 270 1.0 1.0 0.00 0.00 0.00 78 1011.6
20260504030634 43 262 0.0 1.0 0.00 0.00 0.00 78 1011.6
20260504030131 44 262 0.0 0.0 0.00 0.00 0.00 77 1011.7
20260504025628 44 262 0.0 0.0 0.00 0.00 0.00 76 1011.6
20260504025125 44 262 0.0 0.0 0.00 0.00 0.00 76 1011.6
20260504024622 44 262 0.0 0.0 0.00 0.00 0.00 76 1011.5
20260504024118 44 262 0.0 0.0 0.00 0.00 0.00 76 1011.4
20260504023615 44 262 0.0 0.0 0.00 0.00 0.00 75 1011.4
20260504023111 45 262 0.0 0.0 0.00 0.00 0.00 75 1011.6
20260504022608 45 262 0.0 0.0 0.00 0.00 0.00 74 1011.5
20260504022104 46 262 0.0 0.0 0.00 0.00 0.00 73 1011.5
20260504021602 46 262 0.0 0.0 0.00 0.00 0.00 72 1011.5
20260504021058 46 262 0.0 0.0 0.00 0.00 0.00 72 1011.2
20260504020555 46 262 0.0 0.0 0.00 0.00 0.00 71 1011.4
20260504020051 46 262 0.0 0.0 0.00 0.00 0.00 70 1011.2
20260504015548 47 262 0.0 0.0 0.00 0.00 0.00 69 1011.3
20260504015044 47 262 0.0 0.0 0.00 0.00 0.00 68 1011.3
20260504014540 47 262 0.0 0.0 0.00 0.00 0.00 68 1011.3
20260504014038 48 262 0.0 0.0 0.00 0.00 0.00 67 1011.1
20260504013535 48 262 0.0 0.0 0.00 0.00 0.00 66 1011.0
20260504013032 48 262 0.0 0.0 0.00 0.00 0.00 65 1011.1
20260504012530 48 262 0.0 0.0 0.00 0.00 0.00 64 1011.1
20260504012027 49 262 0.0 0.0 0.00 0.00 0.00 63 1011.1
20260504011524 49 262 0.0 0.0 0.00 0.00 0.00 60 1011.2
20260504011020 49 262 0.0 0.0 0.00 0.00 0.00 58 1011.0
20260504010516 50 262 0.0 0.0 0.00 0.00 0.00 60 1011.3
20260504010012 50 262 0.0 0.0 0.00 0.00 0.00 59 1011.1
20260504005509 51 262 0.0 0.0 0.00 0.00 0.00 57 1011.0
20260504005006 51 262 0.0 0.0 0.00 0.00 0.00 55 1010.9
20260504004504 51 262 0.0 1.0 0.00 0.00 0.00 54 1010.8
20260504004000 52 236 1.0 1.0 0.00 0.00 0.00 53 1010.9
20260504003456 53 257 0.0 0.0 0.00 0.00 0.00 49 1010.8
20260504002954 55 317 1.0 1.0 0.00 0.00 0.00 48 1010.9
20260504002450 55 274 0.0 0.0 0.00 0.00 0.00 43 1010.6
20260504001948 55 1 1.0 1.0 0.00 0.00 0.00 41 1010.5
20260504001445 56 81 1.0 1.0 0.00 0.00 0.00 40 1010.4
20260504000942 56 298 1.0 1.0 0.00 0.00 0.00 40 1010.4
20260504000439 56 286 0.0 0.0 0.00 0.00 0.00 40 1010.4
20260503235936 57 287 0.0 0.0 0.00 0.00 0.00 40 1010.4
20260503235434 57 159 0.0 0.0 0.00 0.00 0.00 40 1010.1
20260503234931 57 107 1.0 1.0 0.00 0.00 0.00 40 1010.0
20260503234428 57 221 1.0 1.0 0.00 0.00 0.00 40 1010.2
20260503233927 57 327 1.0 2.0 0.00 0.00 0.00 39 1010.0
20260503233423 57 38 2.0 2.0 0.00 0.00 0.00 38 1010.1
20260503232919 57 45 1.0 2.0 0.00 0.00 0.00 38 1010.2
20260503232416 58 347 2.0 3.0 0.00 0.00 0.00 37 1010.0
20260503231914 58 119 4.0 4.0 0.00 0.00 0.00 36 1009.9
20260503231411 58 158 2.0 3.0 0.00 0.00 0.00 37 1009.9
20260503230907 58 61 0.0 0.0 0.00 0.00 0.00 35 1010.1
20260503230404 58 299 0.0 0.0 0.00 0.00 0.00 34 1009.9
20260503225902 58 226 1.0 2.0 0.00 0.00 0.00 34 1009.8
20260503225357 58 39 1.0 2.0 0.00 0.00 0.00 33 1009.8
20260503224854 58 27 0.0 0.0 0.00 0.00 0.00 35 1009.9
20260503224351 59 159 2.0 2.0 0.00 0.00 0.00 32 1009.6
20260503223849 59 244 2.0 2.0 0.00 0.00 0.00 32 1009.7
20260503223347 59 302 2.0 3.0 0.00 0.00 0.00 31 1009.5
20260503222842 59 52 1.0 1.0 0.00 0.00 0.00 31 1009.5
20260503222341 59 269 1.0 1.0 0.00 0.00 0.00 32 1009.7
20260503221838 59 18 0.0 0.0 0.00 0.00 0.00 32 1009.6
20260503221337 59 24 1.0 2.0 0.00 0.00 0.00 30 1009.4
20260503220832 59 335 3.0 3.0 0.00 0.00 0.00 30 1009.5
20260503220329 59 258 0.0 0.0 0.00 0.00 0.00 30 1009.4
20260503215826 59 139 1.0 1.0 0.00 0.00 0.00 29 1009.5
20260503215323 59 321 1.0 1.0 0.00 0.00 0.00 29 1009.4
20260503214821 59 44 1.0 2.0 0.00 0.00 0.00 29 1009.6
20260503214318 62 262 2.0 3.0 0.00 0.00 0.00 26 1009.4
20260503213815 61 248 1.0 1.0 0.00 0.00 0.00 29 1009.2
20260503213313 61 34 1.0 2.0 0.00 0.00 0.00 29 1009.2
20260503212810 61 216 2.0 2.0 0.00 0.00 0.00 29 1009.2
20260503212308 62 350 1.0 2.0 0.00 0.00 0.00 28 1009.4
20260503211805 60 318 2.0 3.0 0.00 0.00 0.00 27 1009.2
20260503211301 60 45 2.0 3.0 0.00 0.00 0.00 29 1009.3
20260503210801 61 242 2.0 2.0 0.00 0.00 0.00 27 1009.3
20260503210259 60 4 1.0 1.0 0.00 0.00 0.00 30 1009.3
20260503205754 61 281 5.0 7.0 0.00 0.00 0.00 27 1009.3
20260503205251 61 241 1.0 2.0 0.00 0.00 0.00 32 1009.4
20260503204747 60 284 1.0 2.0 0.00 0.00 0.00 30 1009.4
20260503204245 60 310 2.0 2.0 0.00 0.00 0.00 29 1009.3
20260503203742 60 282 0.0 1.0 0.00 0.00 0.00 37 1009.2
20260503203240 60 60 2.0 2.0 0.00 0.00 0.00 30 1009.3
20260503202737 60 72 1.0 1.0 0.00 0.00 0.00 34 1009.4
20260503202234 60 327 1.0 2.0 0.00 0.00 0.00 34 1009.5
20260503201732 59 312 3.0 4.0 0.00 0.00 0.00 33 1009.5
20260503201230 58 47 1.0 2.0 0.00 0.00 0.00 32 1009.5
20260503200726 59 139 1.0 1.0 0.00 0.00 0.00 32 1009.6
20260503200222 58 312 2.0 2.0 0.00 0.00 0.00 30 1009.7
20260503195719 58 303 0.0 0.0 0.00 0.00 0.00 36 1009.7
20260503195216 57 278 2.0 4.0 0.00 0.00 0.00 31 1009.9
20260503194713 58 283 6.0 7.0 0.00 0.00 0.00 29 1009.9
20260503194209 58 42 1.0 1.0 0.00 0.00 0.00 32 1010.0
20260503193705 58 271 1.0 2.0 0.00 0.00 0.00 30 1009.8
20260503193201 58 218 2.0 2.0 0.00 0.00 0.00 30 1010.1
20260503192657 57 278 4.0 7.0 0.00 0.00 0.00 33 1010.2
20260503192153 58 313 2.0 3.0 0.00 0.00 0.00 31 1010.4
20260503191649 57 286 1.0 2.0 0.00 0.00 0.00 37 1010.2
20260503191147 57 325 6.0 9.0 0.00 0.00 0.00 32 1010.5
20260503190643 57 290 4.0 6.0 0.00 0.00 0.00 31 1010.6
20260503190140 57 23 4.0 6.0 0.00 0.00 0.00 34 1010.3
20260503185637 56 2 4.0 4.0 0.00 0.00 0.00 36 1010.6
20260503185132 58 51 2.0 4.0 0.00 0.00 0.00 33 1010.4
20260503184627 57 254 1.0 1.0 0.00 0.00 0.00 37 1010.6
20260503184124 56 345 5.0 8.0 0.00 0.00 0.00 35 1010.5
20260503183621 57 45 2.0 3.0 0.00 0.00 0.00 36 1010.6
20260503183118 58 320 4.0 6.0 0.00 0.00 0.00 38 1011.0
20260503182616 57 86 0.0 1.0 0.00 0.00 0.00 37 1010.8
20260503182114 57 333 2.0 2.0 0.00 0.00 0.00 41 1010.9
20260503181611 58 310 4.0 7.0 0.00 0.00 0.00 37 1010.9
20260503181108 58 329 2.0 3.0 0.00 0.00 0.00 42 1010.9
20260503180605 56 168 1.0 1.0 0.00 0.00 0.00 37 1011.0
20260503180103 56 300 1.0 2.0 0.00 0.00 0.00 37 1010.9
20260503175559 56 50 1.0 2.0 0.00 0.00 0.00 40 1011.1
20260503175056 55 44 2.0 4.0 0.00 0.00 0.00 38 1011.1
20260503174553 55 12 2.0 2.0 0.00 0.00 0.00 41 1011.3